GEESAT-5 01

Last updated on Wed Oct 08 2025 00:02:05 GMT+0000 (Coordinated Universal Time)

1 65550U 25201A 25280.65844608 .00001039 00000+0 14291-3 0 9991 2 65550 49.9863 131.1655 0005263 46.2621 313.8753 14.86273013 4291

Satellite not in orbit

GEESAT-5 01